JQ1YUX-13 Tokyo Ota-ku JP current weather conditions

sailwx.info

Wind from 031

Air temperature 21.1° C
Dewpoint 20.6° C

Last reported at 2018-Jun-20 02:56 UTC.
Time now 2018-Jun-20 03:25 UTC

Location: N 35°35' E 139°40'.
View on Google Maps.

See reports from other nearby stations

  
Tides and Currents Weather Stations Pressure Air Temp Water Temp Dewpoint Dewpoint Depression Visibility Wind Speed Wind Dir Waves Ship Positions
date/time (UTC)wind fromknots sea level pressurealtimeterstation pressurevisibilityair tempwater tempwave heightnotes
2018-Jun-20 03:03 031 21.1
2018-Jun-20 02:56 031 21.1
2018-Jun-20 02:33 031 21.1
2018-Jun-20 02:26 160 21.1
2018-Jun-20 02:03 159 20.6
2018-Jun-20 01:56 160 20.6
2018-Jun-20 01:33 159 21.1
2018-Jun-20 01:26 160 21.1
2018-Jun-20 01:03 175 21.1
2018-Jun-20 00:56 198 21.1
2018-Jun-20 00:33 171 21.1
2018-Jun-20 00:26 171 21.1
2018-Jun-20 00:03 147 21.1
2018-Jun-19 23:56 173 21.1
2018-Jun-19 23:33 191 21.1
2018-Jun-19 23:26 188 21.1
2018-Jun-19 23:03 182 20.6
2018-Jun-19 22:56 173 20.6
2018-Jun-19 22:33 184 20.6
2018-Jun-19 22:26 198 20.6
2018-Jun-19 22:03 185 20.6
2018-Jun-19 21:56 173 20.6
2018-Jun-19 21:33 173 21.1
2018-Jun-19 21:26 172 21.1
2018-Jun-19 21:03 173 21.1
2018-Jun-19 20:56 173 20.6
2018-Jun-19 20:33 173 21.1
2018-Jun-19 20:26 173 21.1
2018-Jun-19 20:03 173 21.1
2018-Jun-19 19:56 178 21.1
2018-Jun-19 19:33 167 21.1
2018-Jun-19 19:26 164 21.7
2018-Jun-19 19:03 167 21.7
2018-Jun-19 18:56 175 21.7
2018-Jun-19 18:33 188 21.7
2018-Jun-19 18:26 182 21.7
2018-Jun-19 18:03 163 21.7
2018-Jun-19 17:56 182 21.7
2018-Jun-19 17:33 191 21.7
2018-Jun-19 17:26 190 21.7
2018-Jun-19 17:03 161 21.7
2018-Jun-19 16:56 169 21.7
2018-Jun-19 16:33 206 21.7
2018-Jun-19 16:26 172 21.7
2018-Jun-19 16:03 184 21.7
2018-Jun-19 15:56 167 21.7
2018-Jun-19 15:33 173 21.7
2018-Jun-19 15:26 172 21.7
2018-Jun-19 15:03 179 21.7
2018-Jun-19 14:56 132 21.7
2018-Jun-19 14:33 162 21.7
2018-Jun-19 14:26 177 21.7
2018-Jun-19 14:03 184 22.2
2018-Jun-19 13:56 179 22.2
2018-Jun-19 13:33 191 22.2
2018-Jun-19 13:26 187 22.2
2018-Jun-19 13:03 176 22.2
2018-Jun-19 12:56 168 22.2
2018-Jun-19 12:33 184 22.2
2018-Jun-19 12:26 196 22.2
2018-Jun-19 12:03 178 22.8
2018-Jun-19 11:56 193 22.8
2018-Jun-19 11:33 169 22.8
2018-Jun-19 11:26 172 23.3
2018-Jun-19 11:03 182 23.3
2018-Jun-19 10:56 178 23.3
2018-Jun-19 10:33 184 23.3
2018-Jun-19 10:26 176 23.3
2018-Jun-19 10:03 176 23.9
2018-Jun-19 09:56 202 24.4
2018-Jun-19 09:33 200 25.0
2018-Jun-19 09:26 205 25.0
2018-Jun-19 09:03 214 26.1
2018-Jun-19 08:56 207 26.1
2018-Jun-19 08:33 170 26.7
2018-Jun-19 08:26 201 27.2
2018-Jun-19 08:03 188 27.8
2018-Jun-19 07:56 186 27.8
2018-Jun-19 07:33 198 27.8
2018-Jun-19 07:26 184 27.8
2018-Jun-19 07:03 185 28.3
2018-Jun-19 06:56 201 28.3
2018-Jun-19 06:33 180 28.3
2018-Jun-19 06:26 187 28.9
2018-Jun-19 06:03 169 28.9
2018-Jun-19 05:56 182 28.3
2018-Jun-19 05:33 191 29.4
2018-Jun-19 05:26 263 29.4
2018-Jun-19 05:03 005 29.4
2018-Jun-19 04:56 033 29.4
2018-Jun-19 04:33 203 28.3
2018-Jun-19 04:26 199 27.8
2018-Jun-19 04:03 025 27.2
2018-Jun-19 03:56 024 27.2
2018-Jun-19 03:33 332 27.8
2018-Jun-19 03:26 052 27.8
2018-Jun-19 03:03 355 26.7
2018-Jun-19 02:56 037 26.1
2018-Jun-19 02:33 055 26.1
2018-Jun-19 02:26 030 26.1
2018-Jun-19 02:03 058 25.6
2018-Jun-19 01:56 005 25.6
2018-Jun-19 01:33 037 25.6
2018-Jun-19 01:26 033 25.0
2018-Jun-19 01:03 028 25.0
2018-Jun-19 00:56 015 24.4
2018-Jun-19 00:33 024 23.9
2018-Jun-19 00:26 025 23.9
2018-Jun-19 00:03 021 23.3
2018-Jun-18 23:56 338 23.3
2018-Jun-18 23:33 344 22.2
2018-Jun-18 23:26 023 22.8
2018-Jun-18 23:03 21.7
2018-Jun-18 22:56 306 21.1
2018-Jun-18 22:33 330 21.1
2018-Jun-18 22:26 330 21.1
2018-Jun-18 22:03 348 20.0
2018-Jun-18 21:56 344 20.0
2018-Jun-18 21:33 355 19.4
2018-Jun-18 21:26 355 19.4
2018-Jun-18 21:03 355 18.9
2018-Jun-18 20:56 355 18.9
2018-Jun-18 20:33 355 18.9
2018-Jun-18 20:26 18.9
2018-Jun-18 20:03 005 18.3
2018-Jun-18 19:56 005 18.3
2018-Jun-18 19:33 005 18.3
2018-Jun-18 19:26 005 18.3
2018-Jun-18 18:56 010 18.3
2018-Jun-18 18:33 005 18.3
2018-Jun-18 18:26 351 18.3
2018-Jun-18 18:03 355 18.3
2018-Jun-18 17:56 350 18.3
2018-Jun-18 17:33 341 18.3
2018-Jun-18 17:26 345 18.3
2018-Jun-18 17:03 355 18.3
2018-Jun-18 16:56 344 18.3
2018-Jun-18 16:33 340 18.3
2018-Jun-18 16:26 298 18.3
2018-Jun-18 16:03 344 18.3
2018-Jun-18 15:56 345 18.3
2018-Jun-18 15:33 342 18.3
2018-Jun-18 15:26 005 18.3
2018-Jun-18 15:03 014 18.3
2018-Jun-18 14:56 18.3
2018-Jun-18 14:43 331 18.3
2018-Jun-18 14:26 334 18.3
2018-Jun-18 14:13 323 18.3
2018-Jun-18 13:56 342 18.3
2018-Jun-18 13:43 323 18.3
2018-Jun-18 13:26 348 18.9
2018-Jun-18 13:13 350 18.9
2018-Jun-18 12:56 355 18.9
2018-Jun-18 11:56 029 18.9
2018-Jun-18 11:43 017 19.4
2018-Jun-18 11:26 017 19.4
2018-Jun-18 11:13 017 19.4
2018-Jun-18 10:56 021 19.4
2018-Jun-18 10:43 022 18.9
2018-Jun-18 10:26 022 18.9
2018-Jun-18 10:13 022 19.4
2018-Jun-18 09:56 021 19.4
2018-Jun-18 09:43 022 20.0
2018-Jun-18 09:26 021 20.6
2018-Jun-18 09:13 021 20.6
2018-Jun-18 08:56 295 21.1
2018-Jun-18 08:43 026 21.7
2018-Jun-18 08:26 032 21.7
2018-Jun-18 08:13 025 21.7
2018-Jun-18 07:56 026 21.1
2018-Jun-18 07:43 015 20.6
2018-Jun-18 07:26 015 20.6
2018-Jun-18 07:13 015 20.0
2018-Jun-18 06:56 015 19.4
2018-Jun-18 06:43 024 19.4
2018-Jun-18 06:26 342 20.0
2018-Jun-18 06:13 355 20.0
2018-Jun-18 05:56 315 20.6
2018-Jun-18 05:43 20.6
2018-Jun-18 05:26 312 20.6
2018-Jun-18 05:13 311 20.6
2018-Jun-18 04:56 311 20.6
2018-Jun-18 04:43 311 20.6
2018-Jun-18 04:26 311 20.6
2018-Jun-18 04:13 311 20.6
2018-Jun-18 03:56 310 20.6
2018-Jun-18 03:43 311 20.6
2018-Jun-18 03:26 310 20.6
2018-Jun-18 03:13 311 20.6